Terminal Aerodrome Forecast
Issued by NWS Des Moines, IA

Home | Current Version | Previous Version | Text Only | Print | Product List | Glossary On
Versions: 1 2 3 4 5 6 7 8 9 10 11 12 13 14 15 16 17 18 19 20 21 22 23 24 25 26 27 28 29 30 31 32 33 34 35 36 37 38 39 40 41 42 43 44 45 46 47
000
FTUS43 KDMX 231415 AAB
TAFDSM
TAF AMD
KDSM 231415Z 2314/2412 17012KT 5SM -DZ OVC003
     FM231600 17011KT 2SM -RA BR BKN005 OVC014
     FM232100 33010KT 3SM -RA BR SCT005 OVC014
     FM240100 33017G25KT 4SM -RA BR SCT007 OVC014
     FM240600 32020G30KT 3SM -SN BR SCT007 OVC014=

USA.gov is the U.S. government's official web portal to all federal, state and local government web resources and services.